SHIYAN 22A (SY-22A) (55242 NORAD) Tracking and Keplerian Element Data

This shows tracking and keplerian element data for the satellite.

Feedback or suggestion? Click here.




ElementValue
Catalog55242
NameSHIYAN 22A (SY-22A)
Epoch Orbit1092
Epoch Day85.11957704
Epoch Year2023
RAAN167.578
Inclination43.2017
Eccentricity0.0010819
Argument of Perigee18.8657
Mean Anonmoly55.0542
Mean Motion15.20749516
Decay Rate0.00050416
L11 55242U 23006A 23085.11957704 .00050416 00000+0 22397-2 0 9991
L22 55242 43.2017 167.5780 0010819 18.8657 55.0542 15.20749516 10928



Live tracking and technical data element details for SHIYAN 22A (SY-22A) (NORAD 55242). SHIYAN 22A (SY-22A) can be tracked NOW for your location showing map with azimuth and elevation plus other details from your city location.







IsCatalogInMostPopularTable: catalog: 55242, numindb: 14
Update: records affected: 1



GetName: 55242 SHIYAN 22A (SY-22A)

Hit Count: updated at: Mon, 27 Mar 2023 08:07:46 GMT